Newton, KS

5:20 AM CST on December 16, 2019 (GMT -0600)
Newton City County

Weather History for KEWK - October, 2019

Change the Weather History Date:

Wednesday, October 23, 2019

  Actual Average Record
Temperature  
Mean Temperature 58 °F -  
Max Temperature 68 °F 62 °F 86 °F (2012)
Min Temperature 48 °F 43 °F 12 °F (2013)
Degree Days  
Heating Degree Days 7    
Growing Degree Days 8 (Base 50)    
Moisture  
Dew Point 34 °F    
Average Humidity 43    
Maximum Humidity 63    
Minimum Humidity 31    
Precipitation  
Precipitation 0.00 in - - ()
Sea Level Pressure  
Sea Level Pressure 29.95 in    
Wind  
Wind Speed 13 mph (WSW)    
Max Wind Speed 21 mph    
Max Gust Speed 25 mph    
Visibility 10 miles    
Events      
Averages and records for this station are not official NWS values.
T = Trace of Precipitation, MM = Missing Value Source: NWS Daily Summary

Daily Weather History Graph

Daily Weather History Graph

Search for Another Location

Airport or City:

Astronomy

Oct. 23, 2019 Rise Set
Actual Time 7:45 AM CDT 6:40 PM CDT
Civil Twilight 7:18 AM CDT 7:07 PM CDT
Nautical Twilight 6:47 AM CDT 7:38 PM CDT
Astronomical Twilight 6:17 AM CDT 8:08 PM CDT
Moon 2:12 AM CDT (10/23) 4:26 PM CDT (10/23)
Length of Visible Light 11h 49m
Length of Day
10h 55m
Waning Crescent, 26% of the Moon is Illuminated
Oct 23
Waning Crescent
Oct 27
New
Nov 4
First Quarter
Nov 12
Full
Nov 19
Last Quarter

Hourly Weather History & Observations

Time (CDT) Temp. Dew Point Humidity Pressure Visibility Wind Dir Wind Speed Gust Speed Precip Events Conditions
12:56 AM 54.0 °F 30.9 °F 41% 29.89 in 10.0 mi SSW 11.5 mph - N/A   Clear
1:56 AM 55.0 °F 30.0 °F 38% 29.90 in 10.0 mi SSW 12.7 mph - N/A   Clear
2:56 AM 53.1 °F 30.0 °F 41% 29.89 in 10.0 mi SSW 12.7 mph - N/A   Clear
3:56 AM 54.0 °F 28.9 °F 38% 29.88 in 10.0 mi SSW 17.3 mph - N/A   Clear
4:56 AM 53.1 °F 28.0 °F 38% 29.88 in 10.0 mi SSW 15.0 mph - N/A   Clear
5:56 AM 51.1 °F 28.9 °F 43% 29.88 in 10.0 mi SSW 13.8 mph - N/A   Clear
6:56 AM 50.0 °F 30.0 °F 46% 29.89 in 10.0 mi SSW 15.0 mph - N/A   Clear
7:56 AM 48.9 °F 30.9 °F 50% 29.89 in 10.0 mi South 16.1 mph - N/A   Clear
8:56 AM 53.1 °F 32.0 °F 45% 29.89 in 10.0 mi SSW 18.4 mph - N/A   Clear
9:56 AM 55.0 °F 34.0 °F 45% 29.91 in 10.0 mi SW 20.7 mph 25.3 mph N/A   Clear
10:56 AM 59.0 °F 35.1 °F 41% 29.90 in 10.0 mi SW 18.4 mph - N/A   Clear
11:56 AM 63.0 °F 35.1 °F 35% 29.90 in 10.0 mi WSW 10.4 mph - N/A   Clear
12:56 PM 66.9 °F 35.1 °F 31% 29.91 in 10.0 mi WNW 11.5 mph - N/A   Clear
1:56 PM 68.0 °F 39.9 °F 36% 29.90 in 10.0 mi NNW 10.4 mph 18.4 mph N/A   Clear
2:56 PM 66.0 °F 39.9 °F 38% 29.91 in 10.0 mi NNW 15.0 mph 24.2 mph N/A   Clear
3:56 PM 64.0 °F 39.0 °F 40% 29.93 in 10.0 mi NNW 13.8 mph - N/A   Clear
4:56 PM 62.1 °F 39.0 °F 43% 29.95 in 10.0 mi North 12.7 mph - N/A   Clear
5:56 PM 59.0 °F 37.0 °F 44% 29.99 in 10.0 mi North 6.9 mph - N/A   Clear
6:56 PM 57.0 °F 36.0 °F 45% 30.01 in 10.0 mi NNE 5.8 mph - N/A   Clear
7:56 PM 54.0 °F 36.0 °F 51% 30.06 in 10.0 mi NNE 5.8 mph - N/A   Clear
8:56 PM 55.9 °F 36.0 °F 47% 30.09 in 10.0 mi NE 4.6 mph - N/A   Clear
9:56 PM 55.0 °F 36.0 °F 49% 30.10 in 10.0 mi ENE 4.6 mph - N/A   Clear
10:56 PM 53.1 °F 37.0 °F 55% 30.12 in 10.0 mi ENE 3.5 mph - N/A   Clear
11:56 PM 50.0 °F 37.9 °F 63% 30.13 in 10.0 mi North 5.8 mph - N/A   Clear